Flag for Denmark Weather past 2 weeks in Aalborg, Denmark

Now
41 °F

Passing clouds.


Feels Like: 33 °F
Forecast: 32 / 42 °F
Wind: 15 mph from Southwest

Location: Aalborg Airport

Current Time: Mar 3, 2015 at 5:07:57 PM

Latest Report: Mar 3, 2015 at 4:20 PM


Visibility: N/A

Pressure: 29.68 "Hg

Humidity: 81%

Dew point: 36 °F

Location of AalborgLocation

Historic Weather in Aalborg — Graph

°F

Aalborg temperature yesterday

Maximum temperature yesterday: 45 °F (at 2:50 PM)
Minimum temperature yesterday: 37 °F (at 6:59 AM)
Average temperature yesterday: 40 °F

Past Weeks' High & Low Weather Summary

 TemperatureHumidityPressure
High46 °F (Feb 27, 1:20 PM)100% (Feb 18, 5:20 AM)30.42 "Hg (Feb 18, 5:20 AM)
Low32 °F (Feb 27, 11:20 PM)61% (Feb 22, 12:50 PM)29.06 "Hg (Feb 23, 8:50 AM)
Average40 °F88%29.68 "Hg
* Reported Feb 16 3:20 PM — Mar 3 3:50 PM, Aalborg, Weather by CustomWeather, © 2015

Note: Actual official high and low records may vary slightly from our data, if they occured in-between our weather recording intervals... More about our weather records

Advertising

Aalborg weather history for previous 24 hours

 ConditionsComfort  
Time TempWeatherWind HumidityBarometerVisibility
3:50 PM
Tue, Mar 3
41 °FScattered clouds.18 mph81%29.68 "HgN/A
3:20 PM41 °FScattered clouds.18 mph81%29.68 "HgN/A
2:50 PM39 °FSprinkles. Partly sunny.14 mph87%29.68 "HgN/A
2:20 PM39 °FSprinkles. Broken clouds.17 mph81%29.68 "HgN/A
1:50 PM39 °FScattered clouds.21 mph81%29.68 "HgN/A
1:20 PM43 °FPassing clouds.17 mph71%29.68 "HgN/A
12:50 PM41 °FPassing clouds.14 mph81%29.68 "HgN/A
12:20 PM41 °FPassing clouds.17 mph81%29.65 "HgN/A
11:50 AM39 °FPartly sunny.18 mph87%29.65 "HgN/A
11:20 AM43 °FPassing clouds.20 mph76%29.65 "HgN/A
10:50 AM41 °FPassing clouds.20 mph81%29.65 "HgN/A
10:20 AM41 °FPassing clouds.17 mph87%29.65 "HgN/A
9:50 AM41 °FPassing clouds.15 mph87%29.62 "HgN/A
9:20 AM39 °FPassing clouds.14 mph87%29.62 "HgN/A
8:50 AM39 °FScattered clouds.14 mph87%29.62 "HgN/A
8:20 AM37 °FSprinkles. Scattered clouds.15 mph93%29.59 "HgN/A
7:50 AM37 °FScattered clouds.15 mph93%29.59 "HgN/A
7:20 AM37 °FBroken clouds.14 mph93%29.59 "HgN/A
6:50 AM37 °FPartly cloudy.20 mph87%29.59 "HgN/A
6:20 AM37 °FPartly cloudy.16 mph93%29.56 "HgN/A
5:50 AM37 °FPassing clouds.12 mph93%29.56 "HgN/A
5:20 AM37 °FSprinkles. Passing clouds.15 mph93%29.56 "HgN/A
4:58 AM39 °FSnow flurries. Partly cloudy.14 mph87%29.56 "Hg3 mi
4:20 AM39 °FPassing clouds.14 mph87%29.53 "HgN/A
3:50 AM39 °FPassing clouds.14 mph93%29.53 "HgN/A
3:20 AM39 °FPassing clouds.13 mph93%29.53 "HgN/A
2:50 AM37 °FPassing clouds.13 mph93%29.50 "HgN/A
2:20 AM37 °FPassing clouds.10 mph93%29.50 "HgN/A
1:50 AM37 °FPassing clouds.10 mph93%29.50 "HgN/A
1:20 AM37 °FClear.12 mph93%29.47 "Hg10 mi
12:50 AM37 °FClear.9 mph93%29.47 "Hg10 mi
12:20 AM37 °FPassing clouds.10 mph93%29.47 "HgN/A
11:50 PM
Mon, Mar 2
39 °FPassing clouds.9 mph87%29.45 "HgN/A
11:20 PM39 °FPassing clouds.12 mph93%29.45 "HgN/A
10:50 PM39 °FPassing clouds.10 mph87%29.45 "HgN/A
10:20 PM39 °FPassing clouds.10 mph93%29.42 "HgN/A
9:50 PM39 °FPassing clouds.13 mph93%29.39 "HgN/A
9:20 PM39 °FPassing clouds.13 mph93%29.39 "HgN/A
8:50 PM39 °FPassing clouds.13 mph93%29.39 "HgN/A
8:20 PM39 °FPassing clouds.13 mph93%29.36 "HgN/A
7:50 PM39 °FPassing clouds.12 mph93%29.36 "HgN/A
7:20 PM39 °FPassing clouds.14 mph93%29.33 "HgN/A
6:50 PM41 °FPassing clouds.12 mph87%29.33 "HgN/A
6:20 PM41 °FPassing clouds.10 mph87%29.33 "HgN/A
5:50 PM43 °FPassing clouds.12 mph81%29.30 "HgN/A
5:20 PM43 °FPassing clouds.14 mph81%29.30 "HgN/A
Weather by CustomWeather, © 2015

See weather overviewHow to use our weather pages